Dalhart, TX

7:27 PM CDT on October 18, 2017 (GMT -0500)
Dalhart Municipal

Weather History for KDHT - May, 2013

Change the Weather History Date:

Saturday, May 18, 2013

  Actual Average Record
Temperature  
Mean Temperature 78 °F 64 °F  
Max Temperature 95 °F 79 °F 99 °F (1996)
Min Temperature 60 °F 49 °F 34 °F (1986)
Degree Days  
Heating Degree Days 0 3  
Month to date heating degree days 117 88  
Since 1 July heating degree days 4397 4690  
Cooling Degree Days 13 2  
Month to date cooling degree days 45 23  
Year to date cooling degree days 56 29  
Growing Degree Days 27 (Base 50)    
Moisture  
Dew Point 33 °F    
Average Humidity 45    
Maximum Humidity 84    
Minimum Humidity 5    
Precipitation  
Precipitation 0.00 in 0.07 in 0.88 in (1955)
Month to date precipitation 0.43 1.19  
Year to date precipitation 1.29 4.36  
Snow  
Snow 0.00 in 0.00 in T in (1955)
Month to date snowfall T 0.1  
Since 1 July snowfall 21.6 19.0  
Snow Depth 0.00 in    
Sea Level Pressure  
Sea Level Pressure 29.62 in    
Wind  
Wind Speed 14 mph (SW)    
Max Wind Speed 33 mph    
Max Gust Speed 41 mph    
Visibility 8 miles    
Events      
T = Trace of Precipitation, MM = Missing Value Source: NWS Daily Summary

Daily Weather History Graph

Daily Weather History Graph

Search for Another Location

Airport or City:

Trip Planner

Search our weather history database for the weather conditions in past years. The results will help you decide how hot, cold, wet, or windy it might be!

Date:

Astronomy

May. 18, 2013 Rise Set
Actual Time 6:41 AM CDT 8:51 PM CDT
Civil Twilight 6:13 AM CDT 9:20 PM CDT
Nautical Twilight 5:37 AM CDT 9:55 PM CDT
Astronomical Twilight 4:59 AM CDT 10:34 PM CDT
Moon 2:09 PM CDT (5/18) 2:22 AM CDT (5/18)
Length of Visible Light 15h 07m
Length of Day
14h 09m
First Quarter, 55% of the Moon is Illuminated
May 18
First Quarter
May 24
Full
May 31
Last Quarter
Jun 8
New
Jun 16
First Quarter

Hourly Weather History & Observations

Time (CDT) Temp. Dew Point Humidity Pressure Visibility Wind Dir Wind Speed Gust Speed Precip Events Conditions
12:53 AM 75.0 °F 57.9 °F 55% 29.68 in 10.0 mi SE 21.9 mph 28.8 mph N/A   Clear
1:53 AM 71.1 °F 59.0 °F 66% 29.66 in 9.0 mi SE 9.2 mph - N/A   Clear
2:53 AM 71.1 °F 62.1 °F 73% 29.64 in 7.0 mi SSE 9.2 mph - N/A   Clear
3:53 AM 66.9 °F 60.1 °F 79% 29.65 in 7.0 mi SW 6.9 mph - N/A   Clear
4:53 AM 66.9 °F 57.9 °F 73% 29.64 in 7.0 mi West 5.8 mph - N/A   Clear
5:53 AM 61.0 °F 55.9 °F 83% 29.66 in 6.0 mi Calm Calm - N/A   Haze
6:53 AM 64.0 °F 55.9 °F 75% 29.65 in 5.0 mi SSW 5.8 mph - N/A   Haze
7:53 AM 66.9 °F 50.0 °F 54% 29.66 in 8.0 mi SSW 5.8 mph - N/A   Clear
8:53 AM 75.9 °F 45.0 °F 33% 29.66 in 10.0 mi South 12.7 mph - N/A   Clear
9:53 AM 81.0 °F 37.9 °F 21% 29.67 in 10.0 mi SW 12.7 mph - N/A   Clear
10:53 AM 87.1 °F 32.0 °F 14% 29.65 in 10.0 mi WSW 17.3 mph - N/A   Clear
11:53 AM 91.0 °F 25.0 °F 9% 29.62 in 10.0 mi WSW 15.0 mph - N/A   Clear
12:53 PM 91.9 °F 21.9 °F 8% 29.61 in 10.0 mi SW 21.9 mph 31.1 mph N/A   Clear
1:53 PM 91.4 °F 19.4 °F 7% 29.80 in 10.0 mi WSW 20.7 mph 28.8 mph N/A   Clear
2:53 PM 93.0 °F 19.0 °F 7% 29.59 in 10.0 mi SW 18.4 mph 28.8 mph N/A   Clear
3:53 PM 93.0 °F 15.1 °F 6% 29.57 in 10.0 mi SSW 23.0 mph 31.1 mph N/A   Clear
4:53 PM 93.9 °F 12.9 °F 5% 29.54 in 10.0 mi SSW 26.5 mph 39.1 mph N/A   Clear
5:53 PM 89.1 °F 10.0 °F 5% 29.56 in 10.0 mi WSW 23.0 mph 29.9 mph N/A   Clear
6:53 PM 90.0 °F 12.0 °F 6% 29.54 in 10.0 mi WSW 25.3 mph 33.4 mph N/A   Clear
7:53 PM 86.0 °F 14.0 °F 7% 29.54 in 10.0 mi WSW 16.1 mph 27.6 mph N/A   Clear
8:53 PM 79.0 °F 17.1 °F 10% 29.53 in 3.0 mi West 16.1 mph - N/A   Haze
9:18 PM 77.0 °F 17.6 °F 11% 29.73 in 3.0 mi West 15.0 mph - N/A   Haze
9:53 PM 72.0 °F 21.9 °F 15% 29.55 in 5.0 mi West 12.7 mph - N/A   Haze
10:53 PM 70.0 °F 25.0 °F 18% 29.56 in 10.0 mi West 12.7 mph - N/A   Clear
11:53 PM 71.1 °F 27.0 °F 19% 29.55 in 10.0 mi WNW 11.5 mph - N/A   Clear